This is the latest recevied weather packets stored in our database for station/object NE8U. If no packets are shown the sender has not sent any weather packets the latest 10 day(s).
| Time | Temp. | Humidity | Pressure | Rain* | Wind** | Luminosity | Snow |
|---|---|---|---|---|---|---|---|
| 1777602549 | 22.78° C | 37% | 1009.9 hPa | 0 mm | - | 0 W/m² | - |
| 1777602244 | 22.78° C | 38% | 1009.8 hPa | 0 mm | - | 0 W/m² | - |
| 1777601941 | 22.78° C | 38% | 1009.7 hPa | 0 mm | - | 0 W/m² | - |
| 1777601635 | 22.78° C | 38% | 1009.7 hPa | 0 mm | - | 0 W/m² | - |
| 1777601331 | 22.78° C | 38% | 1009.5 hPa | 0 mm | - | 0 W/m² | - |
| 1777601028 | 23.33° C | 37% | 1009.5 hPa | 0 mm | - | 0 W/m² | - |
| 1777600725 | 23.33° C | 36% | 1009.4 hPa | 0 mm | - | 0 W/m² | - |
| 1777600421 | 23.89° C | 34% | 1009.2 hPa | 0 mm | - | 0 W/m² | - |
| 1777600116 | 24.44° C | 31% | 1009.1 hPa | 0 mm | - | 2 W/m² | - |
| 1777599812 | 24.44° C | 29% | 1008.8 hPa | 0 mm | - | 3 W/m² | - |
| 1777599508 | 25° C | 26% | 1008.2 hPa | 0 mm | - | 5 W/m² | - |
| 1777599205 | 25.56° C | 25% | 1008.4 hPa | 0 mm | - | 8 W/m² | - |
| 1777598901 | 25.56° C | 23% | 1008 hPa | 0 mm | - | 10 W/m² | - |
| 1777598599 | 26.67° C | 21% | 1007.9 hPa | 0 mm | - | 10 W/m² | - |
| 1777598295 | 27.78° C | 19% | 1007.5 hPa | 0 mm | - | 10 W/m² | - |
| 1777597993 | 27.78° C | 15% | 1007.4 hPa | 0 mm | - | 12 W/m² | - |
| 1777597691 | 27.78° C | 14% | 1007.2 hPa | 0 mm | - | 12 W/m² | - |
| 1777597388 | 27.78° C | 14% | 1007.1 hPa | 0 mm | - | 13 W/m² | - |
| 1777597083 | 28.33° C | 14% | 1007.1 hPa | 0 mm | - | 15 W/m² | - |
| 1777596780 | 28.33° C | 14% | 1007.1 hPa | 0 mm | - | 17 W/m² | - |
| 1777596476 | 28.33° C | 14% | 1007.2 hPa | 0 mm | - | 18 W/m² | - |
| 1777596173 | 28.33° C | 14% | 1007.1 hPa | 0 mm | - | 21 W/m² | - |
| 1777595869 | 28.33° C | 14% | 1006.8 hPa | 0 mm | - | 24 W/m² | - |
| 1777595564 | 28.89° C | 14% | 1006.9 hPa | 0 mm | - | 30 W/m² | - |
| 1777595261 | 28.89° C | 14% | 1006.7 hPa | 0 mm | - | 38 W/m² | - |
* Rain latest hour (hover to see other rain measurements)
** Current wind speed in m/s (hover to see current wind gust speed)